Location: Daytona Beach
(29.2106°N, 81.0231°W)
Time: 00:11:41
(UTC-04:00)

RS-15 - Pass Details

Date: 30 September 2021
Orbit: 1884 x 2160 km, 64.8° (Epoch: 22 October)

Event Time Altitude Azimuth Distance (km) Brightness Sun altitude
Rises 00:55:29 0° 334° (NNW) 5,649 10.8 -63.3°
Reaches altitude 10° 00:58:57 10° 337° (NNW) 4,661 10.2 -63.4°
Enters shadow 01:02:53 25° 341° (NNW) 3,588 9.5 -63.5°
